Wind_Speed
15 17 19 21 25 23 22 31 25 23 26 27 26 27 24 15 17 16 19 14 10 9 11 19 20 23 19 18 18 17 17 18 17 17 17 15 14 14 13 12 11 10 9
16 18 20 23 27 26 22 27 28 25 22 25 28 29 25 20 16 17 16 12 10 11 13 17 19 19 19 18 18 17 18 18 17 17 16 16 14 13 12 11 10 10 9
17 19 21 24 27 29 25 26 28 25 24 26 29 31 24 18 17 14 12 9 11 13 13 18 19 19 19 18 18 18 17 17 17 17 16 15 14 12 11 10 10 10 10
16 19 21 23 25 25 26 26 27 25 28 28 30 29 21 20 17 12 12 9 11 18 15 19 18 19 19 17 17 18 18 18 17 17 16 15 13 12 11 11 11 10 10
21 22 22 23 25 24 24 24 26 28 29 29 32 32 27 23 18 20 12 10 12 18 17 19 18 15 16 18 18 17 18 17 17 16 15 14 13 12 12 12 12 12 12
22 24 25 23 26 24 26 26 26 26 29 33 37 28 30 25 22 16 16 13 8 13 18 20 19 19 19 18 17 18 17 17 17 16 15 14 14 13 13 12 12 12 12
24 24 26 25 24 26 27 28 25 26 24 41 35 28 21 18 23 18 16 13 9 8 13 21 21 20 18 20 18 17 18 18 17 16 15 15 14 14 13 13 13 13 12
26 24 25 26 27 24 27 29 24 22 29 37 33 33 24 25 21 20 18 16 12 11 10 14 16 12 12 18 18 17 18 18 18 17 16 15 15 14 14 14 13 13 12
24 24 25 25 23 23 26 29 25 28 35 40 37 33 27 16 28 23 20 19 17 17 12 13 12 12 9 13 15 15 17 18 17 17 17 16 15 15 15 16 15 15 15
21 24 23 24 23 22 25 30 29 40 42 44 36 30 28 29 32 21 26 24 20 20 19 15 16 16 15 13 13 13 13 18 18 17 16 15 15 16 16 17 18 18 18
18 22 23 23 26 24 30 31 36 32 40 44 39 32 29 18 31 22 27 30 27 26 23 22 19 20 20 19 18 19 17 17 19 19 18 17 16 15 16 17 19 19 20
21 20 20 20 23 25 27 30 33 34 44 40 37 35 32 22 23 25 19 32 31 33 28 26 27 23 24 24 24 26 25 23 19 19 19 19 19 19 20 20 21 23 23
22 21 19 20 22 24 29 32 37 46 45 43 42 38 32 22 21 22 17 14 24 27 29 27 26 28 28 28 27 26 28 28 24 23 22 22 22 23 24 26 28 29 28
19 19 18 20 22 23 33 32 29 43 44 40 40 36 30 31 22 21 20 16 16 17 20 23 22 19 16 21 20 23 24 23 22 23 23 24 24 25 25 28 30 33 34
15 18 17 15 14 11 22 34 29 29 44 43 37 33 31 29 25 23 19 15 16 12 13 13 16 10 19 17 22 22 24 22 21 21 23 24 23 27 31 32 34 30 32
15 15 13 12 12 14 16 20 31 35 39 40 38 33 30 28 27 21 19 16 15 15 18 20 21 14 10 10 15 14 17 18 21 24 24 24 27 29 32 31 29 32 32
12 12 12 13 14 16 15 21 26 29 42 40 35 31 26 25 27 29 25 21 19 18 24 29 31 29 29 27 24 21 23 24 29 29 31 36 37 36 39 41 40 38 37
10 10 11 13 14 14 16 18 30 29 32 35 30 27 27 27 31 29 28 30 34 32 31 34 36 36 33 27 30 31 29 26 33 39 42 45 46 44 45 46 46 45 41
11 10 10 9 13 16 16 19 20 26 31 29 30 29 29 30 32 35 36 34 32 34 34 33 34 31 30 30 28 29 34 35 33 31 28 30 30 30 33 34 34 37 43
15 14 14 14 13 15 16 17 20 23 24 25 27 27 27 27 27 28 29 27 25 24 22 26 29 29 30 28 31 31 29 29 31 28 27 33 32 32 30 31 35 40 43
16 15 15 11 18 15 13 14 13 13 10 16 19 22 23 25 24 21 21 19 18 15 16 19 21 22 24 27 26 27 30 17 23 25 24 24 25 25 26 31 32 28 31
17 16 17 17 16 15 14 13 13 14 15 16 16 18 20 19 21 22 20 20 26 25 25 24 26 25 23 17 19 22 31 35 34 34 32 30 28 32 36 36 36 39 38
20 19 18 18 18 17 17 17 17 16 15 18 16 15 15 16 15 15 20 21 19 22 26 27 27 28 27 28 27 24 22 21 22 24 24 25 25 25 24 23 25 25 26
22 21 21 21 21 19 18 18 19 18 17 17 16 16 13 11 14 18 19 18 18 18 18 18 16 15 16 17 17 17 18 19 19 19 18 16 18 18 19 20 20 21 21
21 20 18 18 19 17 15 13 13 17 17 16 14 14 11 8 7 8 9 9 10 10 11 12 10 9 9 9 11 10 10 10 13 13 12 11 11 13 13 12 11 11 13
18 18 18 15 13 14 11 12 11 12 13 12 10 8 5 6 11 12 9 7 7 4 2 1 2 3 3 3 5 4 4 5 6 5 6 6 8 8 5 7 8 11 12
Wind_Direction
233 225 219 210 211 211 206 198 196 193 189 190 188 183 194 194 179 192 195 199 218 244 224 201 191 199 194 187 181 186 192 184 179 176 174 175 175 173 172 170 168 172 173
231 224 219 213 213 214 216 206 202 197 194 201 191 183 190 194 191 190 196 201 219 237 225 206 177 177 184 186 182 180 183 180 177 178 177 177 178 175 174 176 180 183 186
223 225 216 211 212 217 227 211 198 204 211 210 200 180 190 196 178 180 192 212 218 210 205 183 180 178 177 183 187 182 181 181 182 181 181 181 182 181 184 189 194 196 201
216 219 224 221 219 220 217 206 206 209 207 203 192 178 184 183 189 196 222 227 243 202 191 185 185 183 184 184 185 187 189 189 186 186 186 187 189 192 197 204 210 213 215
216 217 223 223 222 220 211 213 209 206 209 204 193 176 182 191 200 220 208 226 232 208 197 185 190 191 188 194 196 196 194 191 191 194 195 197 202 206 211 215 218 221 222
218 219 221 221 223 217 211 212 210 216 216 209 178 175 193 194 216 194 212 220 204 210 207 194 192 196 199 208 204 198 199 198 199 201 204 208 211 215 218 222 224 224 225
225 219 222 217 214 216 218 221 213 218 225 206 179 176 182 192 192 199 213 209 208 220 210 205 205 210 212 213 210 206 206 205 207 209 213 215 217 220 223 225 225 223 224
222 221 222 220 221 219 209 204 217 224 194 169 169 170 164 171 183 200 203 208 217 209 199 197 210 217 241 233 219 213 215 214 216 217 220 223 226 228 230 230 229 229 230
215 218 223 224 222 214 212 213 210 189 176 176 169 170 151 168 180 191 200 208 214 216 225 212 218 223 246 234 225 226 225 225 225 225 227 231 235 238 238 237 237 239 240
213 218 218 222 220 218 223 220 207 194 182 179 179 186 180 186 176 185 203 204 214 215 221 225 228 230 243 239 231 239 242 236 233 235 240 241 244 248 248 247 246 247 249
208 215 222 226 226 227 218 222 209 203 193 185 185 185 182 183 192 186 199 203 205 210 214 229 234 240 250 256 246 245 241 238 236 240 244 249 255 256 257 258 258 256 255
209 212 214 223 222 222 224 223 219 210 191 191 192 192 194 194 198 206 210 215 217 214 219 221 229 232 237 248 253 254 253 250 243 243 246 250 255 262 264 264 263 261 263
210 218 220 221 228 233 235 222 210 194 195 193 188 190 193 195 202 211 213 208 218 223 222 228 232 236 239 242 247 254 255 255 254 250 249 253 257 262 266 268 268 265 265
215 211 218 230 235 231 227 212 213 204 195 194 192 190 193 200 215 210 204 210 211 224 225 235 237 235 238 247 253 254 252 253 254 255 262 259 260 264 269 274 275 268 264
211 218 223 233 209 229 221 215 205 213 203 194 194 195 200 207 218 218 218 214 206 188 195 220 232 255 254 252 255 258 263 264 268 272 272 270 271 277 280 280 276 271 265
213 209 210 211 188 198 213 206 211 207 193 197 198 201 205 216 216 219 233 239 244 238 243 249 245 258 268 276 256 262 258 264 274 281 269 268 276 280 278 287 280 275 270
185 199 210 205 200 213 217 221 224 207 203 199 197 200 210 214 222 226 234 235 243 253 262 260 254 261 265 265 269 268 264 268 277 276 270 276 277 271 276 281 284 284 275
210 209 209 210 207 192 197 190 212 199 199 199 201 208 210 217 226 234 235 244 249 250 258 263 262 266 265 268 270 270 261 266 271 273 275 279 283 284 280 278 276 276 272
198 205 197 194 203 207 209 211 201 194 196 205 211 219 226 220 226 236 249 254 258 259 258 263 267 270 272 276 276 268 269 278 279 283 287 281 280 277 275 280 275 268 267
188 191 186 192 193 197 197 200 206 215 217 220 227 232 231 240 243 247 256 263 270 268 261 263 269 276 275 274 278 281 283 289 286 283 285 282 277 274 273 270 271 269 272
191 187 190 185 191 182 186 190 192 188 190 219 231 227 235 238 241 242 249 247 243 241 251 264 271 280 285 287 277 269 270 278 284 294 289 273 273 282 281 283 283 292 287
187 190 191 188 183 180 178 194 200 199 201 217 222 221 228 223 235 230 240 248 247 247 255 255 256 252 252 245 259 259 274 277 277 277 279 277 276 278 282 285 284 286 290
187 188 189 190 191 193 188 194 195 198 197 199 195 189 208 209 207 217 241 245 247 248 253 256 255 258 261 266 268 269 273 278 277 276 280 283 282 285 286 288 290 295 294
172 175 170 174 182 184 189 195 196 200 199 190 191 207 219 227 235 245 251 256 260 258 261 264 262 259 264 272 278 282 285 283 284 283 284 282 277 284 288 292 300 305 308
156 157 157 157 162 164 180 174 184 192 196 205 214 224 231 236 237 240 244 245 253 259 272 283 293 297 302 306 310 302 290 290 283 284 287 286 288 299 296 297 306 319 325
125 128 131 133 142 141 140 147 150 157 162 153 152 156 206 258 271 267 253 239 232 210 164 308 333 333 336 332 326 338 334 321 307 308 332 329 330 337 330 321 330 334 338
Height
1484 1488 1491 1495 1497 1500 1503 1507 1512 1515 1518 1523 1527 1530 1534 1536 1539 1542 1545 1547 1548 1549 1551 1554 1556 1558 1559 1561 1563 1564 1566 1568 1570 1572 1573 1575 1577 1579 1581 1583 1585 1586 1588
1482 1486 1488 1491 1495 1497 1501 1505 1509 1512 1516 1521 1524 1529 1531 1534 1537 1540 1543 1544 1546 1548 1550 1551 1554 1555 1558 1559 1561 1563 1565 1567 1569 1571 1573 1575 1577 1579 1581 1583 1585 1586 1587
1479 1483 1486 1488 1492 1495 1499 1503 1507 1510 1514 1518 1520 1525 1529 1532 1535 1538 1541 1543 1545 1546 1549 1551 1553 1555 1557 1558 1560 1561 1564 1566 1568 1570 1572 1574 1577 1579 1581 1583 1584 1585 1587
1477 1480 1483 1485 1490 1492 1495 1499 1503 1507 1510 1513 1517 1522 1526 1529 1533 1537 1540 1541 1544 1544 1547 1551 1552 1555 1556 1558 1559 1560 1563 1565 1567 1570 1572 1574 1576 1578 1579 1581 1583 1584 1585
1474 1477 1480 1482 1486 1488 1493 1497 1500 1504 1506 1509 1515 1520 1525 1527 1532 1536 1539 1541 1542 1543 1546 1548 1551 1554 1556 1557 1557 1560 1562 1564 1567 1569 1571 1573 1575 1576 1578 1579 1580 1582 1583
1471 1474 1477 1480 1482 1486 1490 1493 1496 1500 1504 1502 1510 1517 1524 1527 1530 1535 1538 1540 1541 1542 1545 1548 1550 1552 1554 1555 1556 1558 1561 1563 1566 1568 1570 1571 1573 1574 1576 1577 1578 1580 1581
1468 1471 1472 1476 1479 1483 1485 1490 1493 1496 1498 1496 1505 1515 1521 1526 1530 1532 1536 1538 1539 1541 1542 1546 1549 1550 1551 1553 1555 1557 1559 1562 1564 1566 1568 1570 1571 1572 1574 1575 1577 1577 1579
1464 1466 1469 1472 1474 1478 1481 1486 1488 1490 1493 1497 1503 1512 1519 1526 1529 1531 1534 1536 1537 1539 1541 1544 1547 1549 1550 1552 1553 1555 1558 1559 1562 1564 1566 1568 1569 1571 1572 1574 1575 1576 1577
1459 1462 1465 1468 1470 1474 1477 1481 1484 1487 1489 1496 1502 1507 1512 1519 1525 1530 1532 1534 1536 1537 1539 1542 1544 1547 1548 1549 1552 1553 1556 1558 1560 1562 1564 1566 1568 1569 1570 1572 1573 1574 1575
1455 1458 1461 1464 1466 1470 1474 1477 1480 1483 1486 1492 1500 1505 1507 1512 1518 1525 1529 1532 1533 1535 1536 1538 1542 1544 1546 1548 1550 1552 1554 1556 1558 1560 1562 1564 1565 1567 1567 1569 1570 1571 1572
1451 1454 1457 1460 1462 1465 1468 1472 1473 1479 1485 1487 1495 1501 1506 1511 1515 1518 1523 1527 1530 1532 1534 1535 1538 1541 1542 1544 1547 1548 1551 1553 1555 1557 1559 1561 1562 1564 1565 1566 1567 1568 1568
1448 1451 1454 1456 1459 1461 1463 1466 1469 1472 1477 1485 1491 1498 1504 1507 1512 1516 1519 1521 1524 1527 1531 1534 1536 1538 1540 1541 1543 1545 1547 1550 1551 1553 1555 1557 1558 1559 1560 1561 1562 1563 1563
1444 1447 1450 1452 1454 1456 1457 1459 1463 1466 1473 1480 1486 1493 1501 1506 1511 1513 1516 1518 1520 1524 1528 1530 1533 1535 1537 1539 1540 1541 1543 1545 1547 1549 1551 1552 1553 1554 1554 1555 1556 1556 1557
1441 1444 1447 1448 1450 1451 1450 1453 1459 1464 1470 1477 1484 1491 1497 1502 1508 1510 1512 1515 1517 1520 1523 1525 1529 1531 1533 1534 1535 1538 1539 1541 1543 1545 1546 1547 1547 1548 1548 1549 1549 1549 1549
1439 1442 1444 1445 1445 1445 1447 1450 1457 1462 1468 1474 1482 1488 1495 1500 1503 1507 1508 1511 1514 1517 1519 1523 1526 1527 1528 1531 1532 1533 1535 1536 1538 1539 1539 1540 1541 1541 1541 1541 1541 1541 1540
1437 1440 1441 1442 1443 1445 1448 1450 1454 1458 1465 1472 1479 1485 1491 1495 1499 1502 1505 1508 1510 1513 1516 1518 1521 1522 1525 1525 1525 1528 1529 1531 1533 1533 1533 1533 1534 1534 1534 1533 1533 1533 1533
1435 1438 1440 1441 1442 1444 1445 1447 1450 1456 1462 1468 1475 1481 1486 1491 1495 1499 1502 1504 1507 1508 1510 1511 1513 1516 1519 1520 1522 1523 1524 1524 1524 1525 1526 1526 1525 1524 1523 1523 1523 1523 1524
1434 1436 1438 1439 1441 1443 1445 1447 1449 1453 1459 1467 1473 1478 1483 1487 1491 1494 1496 1500 1501 1503 1506 1506 1507 1509 1511 1514 1515 1516 1517 1517 1517 1518 1517 1517 1516 1514 1513 1511 1510 1511 1512
1433 1435 1436 1438 1440 1442 1445 1447 1451 1455 1460 1466 1470 1474 1478 1481 1484 1487 1491 1493 1494 1495 1498 1500 1499 1503 1503 1505 1506 1508 1509 1509 1508 1508 1507 1503 1502 1501 1499 1498 1497 1498 1500
1430 1432 1434 1436 1438 1441 1443 1446 1451 1454 1458 1462 1467 1469 1472 1475 1479 1482 1484 1486 1487 1489 1491 1493 1494 1494 1496 1497 1498 1498 1498 1499 1497 1497 1496 1494 1493 1491 1490 1488 1488 1488 1487
1429 1431 1433 1435 1437 1440 1442 1446 1448 1451 1455 1458 1460 1463 1466 1469 1473 1475 1478 1481 1483 1484 1486 1487 1488 1489 1489 1490 1490 1491 1491 1492 1491 1489 1488 1488 1485 1484 1481 1480 1480 1480 1479
1428 1430 1431 1434 1437 1440 1443 1445 1447 1449 1452 1455 1458 1460 1462 1465 1468 1471 1473 1475 1476 1478 1480 1481 1482 1483 1483 1483 1483 1485 1484 1484 1483 1483 1482 1480 1477 1475 1473 1471 1471 1469 1467
1426 1428 1430 1432 1435 1438 1441 1443 1446 1448 1451 1452 1456 1457 1460 1462 1464 1466 1469 1470 1472 1473 1474 1474 1474 1475 1475 1475 1475 1474 1474 1473 1472 1473 1473 1470 1469 1466 1465 1462 1461 1460 1456
1423 1425 1427 1428 1431 1435 1438 1440 1443 1445 1448 1450 1452 1455 1457 1457 1459 1461 1463 1464 1465 1465 1466 1466 1467 1467 1467 1467 1467 1467 1468 1466 1465 1464 1464 1464 1462 1461 1459 1457 1455 1455 1453
1423 1424 1427 1428 1428 1430 1435 1438 1440 1441 1443 1446 1448 1450 1452 1453 1454 1456 1457 1458 1459 1461 1461 1462 1462 1463 1463 1463 1462 1462 1461 1460 1458 1459 1459 1459 1458 1457 1456 1454 1453 1451 1450
1424 1425 1427 1429 1429 1427 1434 1436 1439 1439 1440 1441 1444 1445 1447 1449 1450 1452 1454 1455 1456 1458 1459 1460 1460 1460 1461 1460 1459 1458 1458 1458 1457 1456 1456 1456 1455 1454 1453 1452 1451 1450 1449